Overview Statistics Trail Chart Weather Telemetry Raw packets
 

This is the latest recevied weather packets stored in our database for station/object MB7UKB-10. If no packets are shown the sender has not sent any weather packets the latest 10 day(s).

<< 2 3 4 5 6 7 8 >>
Time Temp. Humidity Pressure Rain* Wind** Luminosity Snow
1788523236 19.44° C 62% 1014.1 hPa 0 mm - - -
1788521433 20° C 63% 1013.6 hPa 0 mm - - -
1788517835 20° C 67% 1013.7 hPa 0 mm - - -
1788516034 20° C 72% 1013.1 hPa 0 mm - - -
1788514234 19.44° C 75% 1012.5 hPa 0 mm - - -
1788512434 18.33° C 84% 1012.6 hPa 0 mm - - -
1788510634 18.33° C 86% 1012.3 hPa 0 mm - - -
1788507034 18.33° C 89% 1011.5 hPa 0.51 mm - - -
1788505234 19.44° C 89% 1010.3 hPa 0 mm - - -
1788503438 19.44° C 87% 1010.2 hPa 0 mm - - -
1788501635 20° C 82% 1010.3 hPa 0 mm - - -
1788499834 20° C 83% 1010.6 hPa 0 mm - - -
1788498034 20° C 85% 1010.6 hPa 0 mm - - -
1788496233 20° C 84% 1010.9 hPa 0 mm - - -
1788494434 20° C 85% 1011.4 hPa 0 mm - - -
1788492634 20° C 84% 1011.4 hPa 0 mm - - -
1788490833 19.44° C 84% 1011.9 hPa 0 mm - - -
1788489033 20° C 82% 1012 hPa 0 mm - - -
1788487233 19.44° C 82% 1012.2 hPa 0 mm - - -
1788483634 19.44° C 81% 1012.6 hPa 0 mm - - -
1788481834 20° C 80% 1013.2 hPa 0 mm - - -
1788480034 19.44° C 81% 1013.8 hPa 0 mm - - -
1788478233 19.44° C 82% 1014.4 hPa 0 mm - - -
1788476434 19.44° C 83% 1014.6 hPa 0 mm - - -
1788474634 19.44° C 84% 1015.2 hPa 0 mm - - -

* Rain latest hour (hover to see other rain measurements)
** Current wind speed in m/s (hover to see current wind gust speed)